EW0545 Weather Reports


time (UTC)temp
C
wind
direction
speed
KPH
gust
KPH
rain 1hr
cm
rain 24hr
cm
rain mn
cm
humidity
%
barometer
mb
20260506180023 12 42 0.0 0.0 0.00 0.03 0.00 47 1012.4
20260506163043 12 250 0.0 0.0 0.00 0.05 0.00 47 1012.7
20260506161509 11 288 0.0 0.0 0.00 0.05 0.00 46 1012.5
20260506154551 11 349 0.0 0.0 0.00 0.05 0.00 48 1012.4
20260506153037 11 311 0.0 0.0 0.00 0.05 0.00 47 1012.4
20260506151519 12 293 0.0 0.0 0.00 0.05 0.00 46 1012.4
20260506150027 12 335 0.0 0.0 0.00 0.05 0.00 48 1012.1
20260506144544 12 324 0.0 0.0 0.00 0.05 0.00 46 1012.1
20260506140031 11 10 0.0 1.6 0.00 0.05 0.00 52 1011.7
20260506101520 7 254 0.0 0.0 0.00 0.05 0.00 63 1009.1
20260506093043 7 254 0.0 0.0 0.00 0.05 0.00 62 1008.8
20260506091541 7 253 0.0 0.0 0.00 0.05 0.00 62 1008.5
20260506081503 7 252 0.0 0.0 0.00 0.05 0.00 62 1008.2
20260506080105 8 252 0.0 0.0 0.00 0.05 0.00 61 1008.2
20260506044513 8 252 0.0 0.0 0.00 0.38 0.00 63 1008.6
20260506041502 8 252 0.0 0.0 0.00 0.38 0.00 63 1008.4
20260506034549 8 252 0.0 0.0 0.00 0.38 0.38 63 1008.2
20260506030057 9 252 0.0 0.0 0.00 0.38 0.38 60 1008.4
20260506023052 9 252 0.0 0.0 0.00 0.38 0.38 59 1008.2
20260506020029 9 252 0.0 0.0 0.00 0.38 0.38 58 1008.2
20260505233003 11 252 0.0 0.0 0.00 0.46 0.38 57 1007.0
20260505231515 11 252 0.0 0.0 0.00 0.46 0.38 57 1006.7
20260505230023 11 252 0.0 0.0 0.00 0.46 0.38 57 1006.9
20260505223009 12 250 0.0 0.0 0.00 0.71 0.38 58 1006.9
20260505221537 12 250 0.0 0.0 0.00 0.71 0.38 58 1006.9
20260505220020 12 250 0.0 0.0 0.00 0.71 0.38 57 1006.8
20260505201505 13 280 0.0 0.0 0.03 0.71 0.38 56 1007.0